Temperature
18 18 18 17 17 17 17 17 17 17 17 17 17 17 17 17 17 17 17 17 17 17 17 17 16 16 16 16 16 16 16 16 16 16 16 16 16 16 16 15 15 15 15
18 17 17 17 17 17 17 17 17 17 17 17 17 17 17 17 17 17 17 17 17 17 16 16 16 16 16 16 16 16 16 16 16 16 16 16 16 16 15 15 15 15 15
17 17 17 17 17 17 17 17 17 17 17 17 17 17 17 17 17 17 17 16 16 16 16 16 16 16 16 16 16 16 16 16 16 16 16 16 16 16 16 15 15 15 15
17 17 17 17 17 17 17 17 17 16 16 16 17 16 16 16 16 16 16 16 16 16 16 16 16 16 16 16 16 16 16 16 16 16 16 16 15 15 15 15 15 15 15
17 17 17 17 17 17 17 17 16 16 16 16 16 16 16 16 16 16 16 16 16 16 16 16 16 16 16 16 16 16 16 16 16 16 16 15 15 15 15 15 15 15 15
17 17 17 17 17 17 17 16 16 16 16 16 16 16 16 16 16 16 16 16 16 16 16 16 16 16 16 16 16 15 15 15 15 15 15 15 15 15 15 15 15 15 15
17 17 17 17 17 17 16 16 16 16 16 16 16 16 16 16 16 16 16 16 16 16 16 16 16 16 15 15 15 15 15 15 15 15 15 15 15 15 15 15 15 15 15
17 17 17 17 17 16 16 16 16 16 16 16 16 16 16 16 16 16 16 16 16 16 16 16 16 16 15 15 15 15 15 15 15 15 15 15 15 15 15 15 15 15 15
17 17 17 17 16 16 16 16 16 16 16 16 16 16 16 16 16 16 16 16 16 16 16 16 15 15 15 15 15 15 15 15 15 15 15 15 15 15 15 15 15 15 15
17 17 16 16 16 16 16 16 16 16 16 16 16 16 16 16 16 16 16 16 16 16 16 16 15 15 15 15 15 15 15 15 15 14 14 15 15 15 15 15 15 15 15
17 16 16 16 16 16 16 16 16 16 16 16 16 16 16 16 16 16 16 16 16 16 16 16 15 15 15 15 15 15 15 14 14 14 14 14 14 14 14 14 14 15 15
16 16 16 16 16 16 16 16 16 16 15 15 15 15 15 15 16 16 16 16 16 16 16 15 15 15 15 15 15 15 14 14 14 14 14 14 14 14 14 14 14 14 14
17 17 16 16 16 16 16 16 16 15 15 15 15 15 15 15 15 15 15 15 15 15 15 15 15 15 15 15 15 15 14 14 14 14 14 14 14 14 14 14 14 14 14
17 17 16 16 16 16 16 15 15 15 15 15 15 15 15 15 15 15 15 15 15 15 15 15 15 15 15 15 15 14 14 14 14 14 14 14 14 13 14 14 14 14 14
17 16 16 16 16 16 15 15 15 15 15 15 15 15 15 15 15 15 15 15 15 14 15 15 15 15 14 14 14 14 14 14 14 14 14 13 13 13 13 13 13 13 14
17 16 16 16 16 16 15 15 15 15 15 15 15 15 15 15 15 15 15 14 14 14 14 14 14 14 14 14 14 14 14 14 14 14 13 13 13 13 13 13 13 13 13
16 16 16 16 16 16 15 15 15 15 15 15 15 15 15 15 15 15 14 14 14 14 14 14 14 14 14 14 14 14 14 14 14 14 13 13 13 13 13 13 13 13 13
16 16 16 16 16 16 16 15 15 15 15 15 15 15 15 14 15 15 14 14 14 14 14 14 14 14 14 14 14 14 14 14 14 14 13 13 13 13 13 13 13 13 13
16 16 16 16 16 16 16 15 15 15 15 15 15 15 15 14 15 14 14 14 14 14 14 14 14 14 14 14 14 14 14 14 14 13 13 13 13 13 13 13 13 13 13
16 16 16 16 16 16 15 15 15 15 15 15 15 15 15 15 15 14 14 14 14 14 14 13 14 14 14 14 14 14 14 14 14 13 13 13 13 13 13 13 13 13 13
16 16 16 16 16 16 15 15 15 15 15 15 15 15 15 15 14 14 14 14 14 14 13 13 13 14 14 14 13 13 13 13 13 13 13 13 13 13 13 13 13 13 13
16 16 16 16 16 16 16 15 15 15 15 15 15 15 14 14 14 14 14 14 14 14 13 13 13 13 14 13 13 13 13 13 13 13 13 13 13 13 13 13 13 13 13
16 16 16 16 16 16 15 15 15 15 15 15 14 14 14 14 14 14 14 14 14 14 13 13 13 13 13 13 13 12 12 12 12 12 12 12 13 13 13 13 13 12 12
16 16 16 16 16 15 15 15 15 14 14 14 14 14 14 14 14 14 14 13 13 13 13 13 13 13 13 13 12 12 12 11 12 12 12 12 12 12 13 13 13 13 12
16 16 16 15 15 15 15 15 14 14 14 14 14 14 14 14 14 13 13 13 13 13 13 12 12 12 12 12 12 11 11 11 11 12 12 11 12 12 12 12 12 12 12
15 15 15 15 15 14 14 14 14 14 14 14 14 13 13 13 13 13 12 13 13 13 12 12 12 12 12 12 11 11 11 11 10 10 11 11 11 11 11 12 12 12 12
Wind_Speed
3 3 3 3 3 3 3 2 2 2 2 2 2 3 4 4 4 5 4 7 8 9 9 9 9 9 9 9 9 9 9 9 9 9 9 9 8 8 8 8 8 8 8
5 4 3 3 3 3 3 3 2 2 1 1 1 2 2 3 3 3 3 4 6 7 8 9 9 9 9 10 10 10 10 10 10 10 10 10 10 9 9 9 9 9 8
7 5 3 3 3 4 4 4 3 3 1 1 1 1 1 1 2 2 3 3 4 5 7 8 9 9 9 10 10 10 10 11 11 11 11 11 11 11 11 10 10 10 10
9 7 4 3 4 5 4 3 3 2 2 1 1 1 1 0 1 2 2 2 3 4 5 7 9 9 9 9 10 11 11 11 11 12 12 13 13 13 13 12 12 12 12
10 8 5 4 6 4 3 3 2 2 2 1 1 1 1 1 1 1 2 3 3 4 5 6 7 8 8 8 9 10 10 11 12 13 13 13 14 14 15 14 14 13 13
11 9 6 6 6 4 3 3 3 2 2 1 2 2 2 1 1 1 1 1 2 3 3 3 4 5 6 7 7 8 9 9 10 12 13 14 15 15 16 16 17 16 15
11 9 5 5 5 5 5 5 3 3 2 1 2 2 3 3 2 1 1 0 1 2 2 2 3 3 4 5 6 7 7 8 9 11 12 13 14 15 17 18 18 18 17
10 9 7 6 5 5 5 4 4 3 2 2 2 2 2 3 3 3 1 0 1 1 1 2 2 3 3 3 4 5 6 7 8 9 10 11 11 13 15 17 17 18 19
10 9 9 7 6 5 5 5 5 5 3 1 1 3 3 3 1 2 2 2 1 1 1 1 2 3 3 3 3 3 4 5 5 6 6 7 9 10 11 13 15 17 18
8 9 9 8 6 5 6 5 5 4 4 3 1 1 1 3 2 0 2 2 2 1 1 1 1 2 3 3 3 3 3 4 4 5 4 5 6 8 9 10 11 13 16
6 8 9 8 6 5 6 5 5 4 3 4 3 2 2 2 1 2 1 2 2 1 1 1 2 2 2 3 3 4 4 4 4 5 4 4 5 6 7 8 9 10 12
3 5 7 7 6 5 6 5 5 5 4 4 3 3 3 3 2 2 2 1 1 2 2 2 1 2 3 3 4 5 5 5 6 5 5 5 5 6 6 7 8 9 10
4 6 6 6 5 6 6 5 5 5 5 5 4 3 2 2 3 3 3 2 1 2 2 2 2 2 3 3 4 5 6 6 7 7 7 7 7 8 8 8 9 9 9
6 7 7 7 6 7 7 6 4 4 4 4 5 4 3 2 3 3 3 3 1 1 2 2 2 2 2 3 4 5 5 6 7 8 9 9 10 10 10 10 10 10 10
6 7 7 7 7 7 7 6 5 5 5 4 4 4 3 2 2 2 3 3 4 2 2 2 2 2 3 3 4 4 5 7 8 9 10 11 12 12 12 12 12 12 12
6 8 8 8 7 7 7 6 5 4 5 4 4 5 3 2 3 3 3 2 3 4 3 3 3 2 3 4 4 4 6 8 9 10 11 12 13 13 14 14 14 13 14
8 9 9 8 8 8 7 7 6 6 6 5 5 6 5 4 3 3 3 3 3 3 4 3 3 2 3 3 4 5 6 7 8 11 13 13 14 14 15 15 15 15 15
7 8 8 8 8 9 8 8 8 8 8 7 7 6 6 5 5 4 4 4 4 4 4 4 3 2 4 3 4 4 6 6 7 10 12 13 14 15 15 15 16 16 16
7 7 8 9 9 9 9 9 9 8 8 8 8 8 7 6 6 5 5 5 4 4 4 4 4 3 3 3 3 4 5 5 7 9 11 12 14 15 16 16 17 17 18
8 8 8 9 9 9 9 9 8 8 8 8 8 8 8 8 8 7 6 6 5 5 5 5 5 4 4 3 3 4 5 4 5 6 8 10 12 14 16 17 18 18 19
8 7 8 7 7 7 8 9 9 9 8 8 7 8 8 9 10 9 7 7 6 5 5 5 6 4 5 4 5 4 5 6 6 5 5 6 7 8 11 13 16 18 19
6 6 7 7 7 7 10 12 10 8 8 8 8 7 7 9 10 11 12 11 10 8 8 6 6 7 8 7 6 5 5 5 6 3 3 6 5 8 10 12 15 18 20
6 6 6 6 7 8 10 11 13 8 7 7 7 7 7 7 7 7 9 10 11 13 12 9 10 10 9 8 6 7 7 8 8 6 4 9 8 10 11 14 18 21 22
5 6 6 6 6 7 8 9 10 8 7 7 7 7 7 7 6 7 6 7 8 8 10 10 10 11 10 9 8 8 8 8 8 8 6 8 9 10 11 13 18 21 23
5 5 4 5 5 5 6 8 8 5 5 7 6 7 7 7 7 7 6 7 8 8 9 12 13 14 15 14 10 6 7 7 9 8 6 6 8 9 9 10 14 18 21
5 4 4 4 5 5 5 6 7 4 5 5 4 5 6 6 6 6 7 7 9 8 6 7 7 10 11 12 12 10 9 9 8 7 6 5 6 6 7 6 8 9 11
Wind_Direction
169 172 173 162 154 140 129 114 100 97 91 92 125 146 158 157 174 185 195 196 195 196 195 198 197 197 196 195 196 194 192 192 191 191 190 188 186 187 187 184 181 178 178
175 172 172 168 170 166 153 138 126 113 90 94 109 129 156 166 173 190 200 209 210 210 211 210 208 208 207 207 208 208 207 203 201 201 203 201 200 201 201 199 195 193 192
183 175 167 178 182 166 144 127 109 98 97 94 92 81 116 160 182 206 213 219 230 230 226 224 220 218 218 218 219 218 217 215 212 211 213 212 211 212 211 210 207 205 205
181 172 170 182 176 156 141 129 115 104 96 97 89 60 59 106 212 222 215 218 231 240 239 237 234 229 229 228 228 226 223 223 222 221 222 221 220 219 220 219 217 215 214
179 172 172 172 164 148 142 141 113 122 131 124 116 62 36 14 281 236 221 222 231 242 246 252 247 241 238 237 237 235 230 227 227 228 227 226 227 225 224 223 223 223 222
175 169 166 165 157 143 138 129 123 101 105 118 94 58 24 3 10 337 261 237 230 233 237 246 248 251 246 244 242 240 237 237 238 238 236 232 229 230 232 229 227 227 227
170 165 163 161 159 156 156 145 125 115 90 95 86 40 14 19 24 2 341 308 279 259 237 237 238 239 245 242 240 239 239 243 243 242 241 238 235 235 236 235 233 232 230
168 170 162 165 162 148 144 146 135 126 101 92 120 99 29 359 2 13 3 314 295 310 277 256 234 226 235 238 244 245 246 246 247 249 245 243 242 242 240 238 235 236 235
171 168 168 162 161 157 161 163 154 146 145 97 98 140 147 210 307 344 3 7 343 303 283 281 248 239 234 232 243 252 252 246 249 254 250 245 246 245 245 242 241 240 239
171 169 166 163 162 159 161 170 163 151 145 150 115 81 125 151 153 359 341 354 354 338 317 297 280 262 251 243 243 254 262 254 254 261 261 253 251 249 249 249 250 247 243
170 168 164 162 161 162 165 162 157 157 155 157 158 147 120 89 113 148 209 325 343 336 317 286 264 257 252 240 245 252 258 259 263 266 272 274 270 265 262 261 261 260 253
163 166 164 165 165 163 165 166 163 160 161 154 158 160 160 160 171 157 171 220 286 313 320 309 278 259 253 246 253 258 255 258 258 261 265 272 279 281 277 274 275 276 271
173 180 170 166 167 170 166 159 159 164 164 161 164 169 171 172 156 151 148 165 233 312 323 322 305 284 262 256 265 266 257 253 255 259 264 271 277 280 280 279 281 280 279
181 175 170 172 173 170 167 161 162 171 166 167 169 161 160 170 166 162 157 150 146 326 322 299 313 298 293 280 276 268 258 256 256 259 264 270 274 277 278 277 278 278 278
176 172 172 173 176 173 169 166 172 174 166 173 174 170 165 172 173 173 159 158 157 191 259 278 284 293 294 284 286 272 260 262 261 263 267 272 273 273 272 272 274 275 274
174 172 177 178 178 176 172 171 172 175 172 180 179 174 175 177 175 173 174 172 168 174 217 246 250 271 288 289 285 267 264 269 269 269 271 273 272 271 271 270 270 269 270
178 182 184 182 182 184 181 179 184 180 184 190 190 189 196 186 183 182 176 175 182 179 213 253 248 262 268 276 292 285 273 267 270 272 272 271 270 269 268 268 268 268 268
186 188 185 185 190 192 187 187 192 190 193 199 203 199 207 199 198 196 193 197 199 199 209 245 258 256 255 265 273 277 277 271 267 272 272 271 269 268 268 268 268 268 267
185 187 187 192 196 195 193 196 196 195 200 206 206 206 212 204 213 210 208 213 215 211 211 230 255 256 264 268 278 279 277 274 276 273 272 269 269 269 269 269 268 268 267
188 192 197 199 201 198 197 199 199 201 205 210 211 213 214 211 217 215 216 219 217 216 215 231 251 261 262 263 259 272 284 277 281 284 276 274 272 272 270 270 269 267 267
195 194 195 200 201 201 206 203 204 207 208 214 219 221 222 219 217 214 217 217 211 220 226 235 250 260 264 258 257 254 270 284 283 265 273 273 272 273 274 272 270 268 266
192 188 196 200 205 216 212 204 203 209 210 215 225 231 232 230 229 224 225 220 210 216 228 235 249 254 261 259 257 253 262 275 283 253 247 275 269 274 274 271 269 268 267
189 193 203 204 215 225 219 213 208 208 213 218 223 230 238 237 227 234 237 237 232 226 221 226 244 250 256 251 250 259 252 253 261 263 257 279 273 272 272 270 266 265 266
193 203 210 214 221 229 221 217 212 210 217 222 222 223 229 238 233 229 239 246 248 244 235 233 242 250 254 253 244 252 260 264 264 260 238 267 275 272 275 271 266 263 263
191 200 202 212 219 234 223 217 208 210 221 230 231 228 227 235 238 227 229 248 262 264 253 242 245 256 260 259 254 256 258 259 272 272 230 241 270 276 276 272 268 262 260
200 201 208 213 214 224 217 210 200 207 222 234 238 234 226 231 241 231 228 237 254 263 271 277 267 267 267 266 253 239 244 254 265 271 244 226 262 270 277 265 266 270 267
Height
1555 1557 1559 1560 1562 1563 1564 1565 1567 1568 1569 1570 1571 1572 1573 1573 1574 1576 1576 1577 1578 1579 1580 1581 1582 1584 1585 1586 1587 1588 1589 1591 1592 1593 1594 1594 1595 1596 1597 1598 1599 1600 1600
1556 1557 1559 1560 1562 1563 1564 1566 1567 1568 1569 1571 1571 1572 1573 1574 1575 1576 1577 1578 1578 1579 1580 1581 1582 1583 1585 1586 1587 1588 1589 1590 1591 1592 1593 1594 1595 1596 1597 1598 1599 1599 1600
1555 1557 1559 1560 1562 1563 1565 1566 1567 1568 1569 1570 1571 1572 1573 1574 1575 1576 1577 1577 1578 1579 1580 1581 1582 1583 1583 1585 1586 1587 1588 1589 1590 1591 1592 1593 1594 1595 1596 1597 1598 1599 1599
1555 1557 1558 1560 1562 1563 1564 1566 1567 1568 1569 1570 1571 1572 1572 1573 1574 1575 1576 1577 1578 1579 1580 1580 1581 1582 1583 1583 1584 1585 1586 1587 1588 1589 1591 1592 1593 1594 1595 1596 1597 1597 1598
1554 1556 1558 1560 1561 1563 1564 1566 1567 1568 1569 1570 1570 1571 1572 1573 1574 1575 1575 1577 1577 1578 1579 1580 1580 1581 1581 1582 1583 1584 1585 1586 1587 1588 1589 1590 1591 1592 1593 1594 1595 1596 1597
1553 1555 1557 1559 1561 1562 1564 1565 1566 1567 1568 1569 1570 1570 1571 1572 1573 1574 1575 1576 1577 1578 1578 1579 1579 1580 1580 1581 1582 1582 1583 1583 1584 1585 1586 1587 1588 1589 1590 1591 1592 1593 1594
1552 1554 1556 1558 1560 1561 1563 1564 1565 1567 1568 1569 1570 1570 1571 1572 1572 1573 1574 1575 1576 1577 1577 1578 1578 1579 1579 1580 1580 1581 1581 1581 1582 1582 1583 1584 1585 1586 1587 1588 1589 1590 1591
1550 1553 1555 1557 1558 1560 1561 1563 1564 1566 1567 1568 1569 1570 1570 1572 1572 1573 1573 1574 1575 1576 1576 1577 1577 1578 1578 1578 1579 1579 1579 1580 1580 1580 1581 1581 1582 1583 1583 1585 1586 1587 1588
1549 1551 1553 1555 1557 1559 1560 1561 1563 1564 1565 1567 1568 1569 1570 1570 1571 1572 1572 1573 1574 1574 1575 1576 1576 1576 1577 1577 1577 1578 1578 1578 1578 1578 1578 1578 1579 1579 1580 1581 1582 1583 1584
1547 1550 1552 1554 1556 1557 1559 1560 1561 1563 1564 1565 1566 1567 1569 1569 1570 1570 1571 1572 1572 1573 1574 1574 1575 1575 1575 1575 1576 1576 1576 1576 1576 1576 1576 1576 1576 1576 1577 1577 1578 1579 1580
1545 1548 1550 1552 1554 1555 1557 1558 1560 1561 1562 1563 1564 1565 1566 1567 1568 1569 1569 1570 1571 1571 1572 1572 1573 1573 1573 1574 1574 1574 1574 1574 1574 1574 1574 1574 1574 1574 1574 1574 1574 1575 1575
1543 1546 1548 1550 1552 1554 1555 1556 1558 1559 1560 1561 1563 1564 1565 1565 1566 1567 1568 1568 1569 1570 1570 1571 1571 1571 1572 1572 1572 1572 1572 1572 1572 1572 1572 1571 1571 1571 1571 1571 1571 1571 1571
1541 1544 1546 1548 1550 1552 1553 1555 1556 1557 1558 1559 1560 1562 1563 1564 1565 1565 1566 1567 1567 1568 1568 1569 1569 1569 1570 1570 1570 1570 1570 1570 1570 1569 1569 1568 1568 1568 1567 1567 1567 1567 1567
1539 1542 1545 1547 1548 1550 1551 1553 1554 1555 1556 1557 1558 1559 1560 1561 1562 1563 1564 1565 1565 1566 1566 1566 1567 1567 1567 1567 1568 1567 1567 1567 1567 1567 1566 1566 1565 1564 1564 1563 1563 1563 1562
1538 1540 1543 1545 1546 1548 1549 1551 1551 1552 1553 1554 1556 1557 1558 1559 1560 1561 1562 1563 1564 1563 1563 1564 1564 1564 1565 1565 1565 1565 1564 1564 1564 1564 1563 1562 1561 1561 1560 1559 1559 1559 1558
1535 1538 1540 1542 1544 1545 1547 1548 1549 1550 1551 1552 1553 1554 1555 1556 1557 1558 1559 1560 1561 1561 1561 1561 1561 1562 1562 1562 1561 1561 1561 1561 1560 1560 1559 1559 1558 1557 1556 1556 1555 1555 1554
1533 1535 1537 1539 1541 1543 1544 1545 1546 1547 1548 1550 1551 1552 1553 1554 1555 1556 1556 1557 1558 1558 1558 1558 1558 1558 1558 1558 1558 1558 1557 1557 1556 1556 1555 1554 1554 1553 1552 1551 1551 1550 1549
1529 1532 1534 1536 1538 1539 1541 1542 1543 1545 1546 1547 1548 1549 1551 1551 1552 1553 1554 1554 1555 1555 1555 1555 1555 1555 1555 1554 1554 1553 1553 1552 1552 1551 1550 1550 1549 1548 1547 1546 1546 1545 1544
1526 1528 1530 1532 1534 1536 1537 1539 1540 1541 1543 1544 1545 1547 1548 1549 1549 1550 1550 1551 1551 1551 1551 1551 1550 1551 1550 1550 1549 1549 1548 1547 1547 1546 1545 1544 1544 1543 1542 1541 1539 1539 1538
1522 1524 1526 1528 1530 1532 1533 1535 1537 1538 1539 1540 1542 1543 1544 1545 1546 1546 1547 1547 1547 1547 1547 1546 1546 1546 1545 1545 1544 1544 1543 1542 1541 1541 1540 1539 1538 1537 1536 1534 1533 1532 1531
1518 1520 1522 1524 1526 1527 1529 1531 1532 1534 1535 1536 1537 1539 1540 1540 1541 1542 1542 1542 1542 1542 1542 1542 1541 1540 1540 1539 1539 1538 1537 1536 1535 1534 1533 1532 1531 1530 1529 1527 1526 1525 1524
1514 1516 1518 1520 1522 1523 1525 1526 1528 1529 1530 1531 1533 1534 1535 1535 1536 1537 1537 1537 1538 1537 1537 1536 1535 1535 1534 1534 1533 1532 1531 1529 1527 1528 1526 1524 1524 1522 1521 1520 1519 1518 1517
1510 1512 1514 1516 1517 1518 1520 1521 1523 1524 1525 1526 1527 1528 1529 1530 1531 1531 1531 1531 1531 1531 1531 1531 1529 1528 1528 1528 1527 1525 1524 1522 1521 1520 1519 1515 1516 1514 1514 1512 1511 1510 1509
1506 1508 1509 1511 1512 1513 1515 1516 1517 1518 1519 1520 1521 1522 1523 1524 1525 1525 1525 1525 1525 1524 1524 1524 1523 1522 1522 1521 1520 1519 1517 1515 1513 1513 1512 1508 1507 1506 1505 1504 1503 1502 1500
1501 1503 1504 1506 1507 1508 1510 1511 1512 1513 1513 1514 1515 1516 1517 1517 1518 1518 1518 1518 1518 1518 1518 1517 1516 1516 1515 1514 1513 1511 1509 1507 1504 1504 1504 1501 1498 1497 1495 1494 1494 1493 1492
1497 1499 1500 1501 1502 1503 1505 1506 1507 1508 1508 1509 1510 1511 1510 1510 1511 1512 1512 1511 1511 1510 1510 1509 1509 1508 1507 1506 1505 1504 1502 1500 1496 1494 1495 1493 1490 1489 1485 1484 1484 1484 1483